User: anonymous
Location: Allison's Woods
(35.8809°N, 80.8140°W)
Time: 22:36:09
(UTC-04:00)
Language:

Iridium 39 - Orbit

View from above orbital plane
View from above orbital plane
View from above satellite
View from above satellite

Ground track
Ground track

The orbit data is extracted from the following two-line orbital elements,

1 25042U 97069D   14209.24203596  .00000376  00000-0  12719-3 0  9046
2 25042 086.3981 103.1428 0002185 092.9283 267.2163 14.34220715875105
Epoch (UTC): 28 July 2014 05:48:31
Eccentricity: 0.0002185
inclination: 86.3981°
perigee height: 776 km
apogee height: 779 km
right ascension of ascending node: 103.1428°
argument of perigee: 92.9283°
revolutions per day: 14.34220715
mean anomaly at epoch: 267.2163°
orbit number at epoch: 87510

The dashed part of the orbit path shows where the satellite is in the earth's shadow,  

DLR